F4ETJ-1 Weather Reports


time (UTC)temp
F
wind
direction
speed
knots
gust
knots
rain 1hr
in
rain 24hr
in
rain mn
in
humidity
%
barometer
mb
20260507165918 69 68 3.5 6.1 0.00 0.00 0.00 51 1009.1
20260507162916 70 73 1.7 7.0 0.00 0.00 0.00 50 1009.0
20260507162316 71 86 0.9 2.6 0.00 0.00 0.00 46 1009.1
20260507161115 71 82 0.9 5.2 0.00 0.00 0.00 49 1009.2
20260507155915 71 249 1.7 2.6 0.00 0.00 0.00 45 1009.2
20260507154714 71 265 0.9 4.3 0.00 0.00 0.00 46 1009.3
20260507154114 72 182 0.9 1.7 0.00 0.00 0.00 47 1009.4
20260507152913 70 113 1.7 5.2 0.00 0.00 0.00 46 1009.5
20260507152313 71 159 0.9 2.6 0.00 0.00 0.00 46 1009.5
20260507150512 69 180 0.9 3.5 0.00 0.00 0.00 49 1009.6
20260507145311 69 243 1.7 4.3 0.00 0.00 0.00 50 1009.7
20260507143510 69 124 2.6 3.5 0.00 0.00 0.00 46 1010.0
20260507142911 70 115 3.5 7.0 0.00 0.00 0.00 46 1010.0
20260507140508 70 174 1.7 3.5 0.00 0.00 0.00 47 1010.2
20260507135908 70 201 1.7 7.0 0.00 0.00 0.00 44 1010.3
20260507134707 68 239 0.9 3.5 0.00 0.00 0.00 49 1010.5
20260507133506 68 329 1.7 5.2 0.00 0.00 0.00 57 1010.7
20260507132307 67 96 0.9 3.5 0.00 0.00 0.00 54 1010.7
20260507131707 68 149 0.9 1.7 0.00 0.00 0.00 56 1010.7
20260507130505 67 124 2.6 5.2 0.00 0.00 0.00 55 1010.8
20260507124103 68 59 0.9 1.7 0.00 0.00 0.00 61 1011.0
20260507122903 65 33 1.7 3.5 0.00 0.00 0.00 58 1011.1
20260507121102 66 31 2.6 5.2 0.00 0.00 0.00 60 1011.2
20260507120502 66 34 1.7 4.3 0.00 0.00 0.00 63 1011.2
20260507113500 67 119 1.7 5.2 0.00 0.00 0.00 60 1011.4
20260507111701 66 122 2.6 7.0 0.00 0.00 0.00 60 1011.6
20260507111058 65 181 2.6 4.3 0.00 0.00 0.00 60 1011.7
20260507105858 66 113 1.7 3.5 0.00 0.00 0.00 60 1011.9
20260507104657 65 103 2.6 6.1 0.00 0.00 0.00 62 1011.9
20260507104057 65 78 1.7 6.1 0.00 0.00 0.00 62 1012.0
20260507103456 65 118 1.7 3.5 0.00 0.00 0.00 63 1012.0
20260507102856 64 56 1.7 4.3 0.00 0.00 0.00 63 1012.1
20260507102256 65 131 1.7 2.6 0.00 0.00 0.00 63 1012.1
20260507101655 64 24 1.7 3.5 0.00 0.00 0.00 64 1012.1
20260507101055 64 86 2.6 3.5 0.00 0.00 0.00 65 1012.1
20260507100455 64 30 2.6 5.2 0.00 0.00 0.00 66 1012.2
20260507095856 64 86 0.9 5.2 0.00 0.00 0.00 66 1012.2
20260507094654 63 72 2.6 5.2 0.00 0.00 0.00 67 1012.2
20260507091652 62 30 1.7 3.5 0.00 0.00 0.00 71 1012.0
20260507090453 61 213 0.9 3.5 0.00 0.00 0.00 68 1012.0
20260507085251 62 164 0.9 2.6 0.00 0.00 0.00 71 1012.1
20260507084050 61 280 0.0 1.7 0.00 0.00 0.00 74 1012.1
20260507082249 59 276 0.0 1.7 0.00 0.00 0.00 76 1012.1
20260507081048 59 268 0.9 3.5 0.00 0.00 0.00 79 1012.1
20260507075247 60 308 0.0 2.6 0.00 0.00 0.00 81 1012.1
20260507074047 58 76 0.9 3.5 0.00 0.00 0.00 82 1012.2
20260507071645 56 302 0.0 2.6 0.00 0.00 0.00 88 1012.1
20260507071045 56 272 0.0 0.9 0.00 0.00 0.00 91 1012.0
20260507070445 55 272 0.0 0.0 0.00 0.00 0.00 93 1012.0
20260507063442 53 272 0.0 1.7 0.00 0.00 0.00 95 1011.8
20260507062842 52 272 0.0 0.9 0.00 0.00 0.00 95 1011.8
20260507062242 53 272 0.0 0.9 0.00 0.00 0.00 95 1011.7
20260507061641 53 272 0.0 0.0 0.00 0.00 0.00 96 1011.7
20260507061040 52 272 0.0 0.0 0.00 0.00 0.00 95 1011.7
20260507060440 51 272 0.0 0.0 0.00 0.00 0.00 96 1011.8
20260507055840 50 272 0.0 0.0 0.00 0.00 0.00 95 1011.8
20260507055241 50 272 0.0 0.0 0.00 0.00 0.00 95 1011.8
20260507054639 50 272 0.0 0.0 0.00 0.00 0.00 95 1011.7
20260507054039 49 272 0.0 0.0 0.00 0.00 0.00 95 1011.7
20260507053438 49 272 0.0 0.0 0.00 0.00 0.00 95 1011.7
20260507052838 48 272 0.0 0.0 0.00 0.00 0.00 95 1011.6
20260507052238 48 272 0.0 0.0 0.00 0.00 0.00 95 1011.6
20260507051638 48 272 0.0 0.0 0.00 0.00 0.00 95 1011.6
20260507051037 48 272 0.0 0.0 0.00 0.00 0.00 95 1011.5
20260506232943 54 276 0.0 0.9 0.00 0.70 0.70 93 1011.8
20260506232342 54 276 0.0 0.0 0.00 0.70 0.70 93 1011.8
20260506231742 54 276 0.0 0.0 0.00 0.70 0.70 92 1011.8
20260506231141 54 276 0.9 1.7 0.00 0.70 0.70 92 1011.8
20260506230541 54 276 0.9 1.7 0.00 0.70 0.70 92 1011.8
20260506225941 54 276 0.9 1.7 0.00 0.70 0.70 92 1011.7
20260506225340 54 276 0.9 1.7 0.00 0.70 0.70 92 1011.7
20260506224740 54 276 0.0 1.7 0.00 0.70 0.70 92 1011.8
20260506224140 54 276 0.9 0.9 0.00 0.70 0.70 92 1011.7
20260506223540 54 276 0.9 1.7 0.00 0.70 0.70 92 1011.7
20260506222939 54 276 0.9 1.7 0.00 0.70 0.70 92 1011.7
20260506222339 54 276 0.0 1.7 0.00 0.70 0.70 91 1011.7
20260506221738 54 276 0.9 1.7 0.00 0.70 0.70 91 1011.7
20260506221138 54 276 0.9 1.7 0.00 0.70 0.70 91 1011.6
20260506220537 54 276 0.0 0.9 0.00 0.70 0.70 91 1011.6
20260506215937 54 276 0.0 1.7 0.00 0.70 0.70 91 1011.6
20260506215337 54 276 0.9 0.9 0.00 0.70 0.70 91 1011.6
20260506214737 54 276 0.9 0.9 0.00 0.70 0.70 91 1011.6
20260506214136 54 276 0.9 1.7 0.00 0.70 0.70 91 1011.5
20260506213536 54 276 0.0 0.9 0.00 0.70 0.70 90 1011.5
20260506212936 54 276 0.9 0.9 0.00 0.70 0.70 90 1011.5
20260506212336 54 276 0.0 1.7 0.00 0.70 0.70 90 1011.6
20260506211735 54 276 0.0 0.9 0.00 0.70 0.70 90 1011.5
20260506211135 54 276 0.0 0.9 0.00 0.70 0.70 90 1011.5
20260506210534 54 276 0.0 1.7 0.00 0.70 0.70 90 1011.5
20260506205934 55 276 0.0 0.9 0.00 0.70 0.70 90 1011.5
20260506205334 55 276 0.0 1.7 0.00 0.70 0.70 90 1011.4
20260506204734 55 276 0.0 0.0 0.00 0.70 0.70 90 1011.4
20260506204133 55 276 0.9 1.7 0.00 0.70 0.70 90 1011.3
20260506203533 55 276 0.9 1.7 0.00 0.70 0.70 89 1011.3
20260506202932 55 276 1.7 1.7 0.00 0.70 0.70 89 1011.2
20260506202332 55 276 0.9 2.6 0.00 0.70 0.70 89 1011.2
20260506201732 55 276 0.9 1.7 0.00 0.70 0.70 89 1011.0
20260506201131 55 276 0.9 0.9 0.00 0.70 0.70 89 1011.0
20260506200531 55 276 0.9 1.7 0.00 0.70 0.70 89 1010.9
20260506195930 55 276 0.9 1.7 0.00 0.70 0.70 89 1010.8
20260506195330 55 276 0.9 0.9 0.00 0.70 0.70 89 1010.8
20260506194730 55 276 0.9 1.7 0.00 0.70 0.70 89 1010.7
20260506194129 55 276 0.9 1.7 0.00 0.70 0.70 88 1010.5
20260506193529 55 276 0.9 2.6 0.00 0.70 0.70 88 1010.5
20260506192929 55 276 1.7 2.6 0.00 0.70 0.70 88 1010.4
20260506192329 55 276 1.7 2.6 0.00 0.70 0.70 88 1010.4
20260506191728 55 276 1.7 2.6 0.00 0.70 0.70 88 1010.4
20260506191128 56 273 1.7 3.5 0.00 0.70 0.70 88 1010.3
20260506190527 56 274 1.7 3.5 0.00 0.70 0.70 87 1010.2
20260506185927 56 292 1.7 4.3 0.00 0.70 0.70 87 1010.2
20260506185327 56 303 1.7 3.5 0.00 0.70 0.70 87 1010.1
20260506184727 56 304 2.6 2.6 0.00 0.70 0.70 87 1010.0
20260506184126 56 298 3.5 6.1 0.00 0.70 0.70 86 1009.9
20260506183526 56 295 3.5 7.0 0.00 0.70 0.70 86 1009.9
20260506182926 56 295 3.5 6.1 0.00 0.70 0.70 86 1009.9
20260506182325 56 298 3.5 7.0 0.00 0.70 0.70 86 1009.8
20260506181725 56 297 2.6 7.8 0.00 0.70 0.70 86 1009.8
20260506181124 56 281 3.5 6.1 0.00 0.70 0.70 86 1009.7
20260506180524 56 269 5.2 7.8 0.00 0.70 0.70 86 1009.8
20260506175924 56 295 5.2 10.4 0.00 0.70 0.70 86 1009.7
20260506175323 56 309 4.3 7.8 0.00 0.70 0.70 86 1009.6
20260506174723 56 307 3.5 7.8 0.00 0.70 0.70 86 1009.5
20260506174122 56 297 4.3 7.0 0.00 0.70 0.70 86 1009.4
20260506173522 56 271 4.3 7.0 0.00 0.70 0.70 86 1009.4
20260506172922 56 282 2.6 7.8 0.00 0.70 0.70 86 1009.3
20260506172321 56 284 2.6 5.2 0.00 0.70 0.70 86 1009.3
20260506171721 56 279 2.6 6.1 0.00 0.70 0.70 86 1009.3
20260506171121 56 278 2.6 5.2 0.00 0.70 0.70 86 1009.2
20260506170520 56 279 2.6 3.5 0.00 0.70 0.70 86 1009.2